This is the latest recevied weather packets stored in our database for station/object K4CRS-13. If no packets are shown the sender has not sent any weather packets the latest 10 day(s).
| Time | Temp. | Humidity | Pressure | Rain* | Wind** | Luminosity | Snow |
|---|---|---|---|---|---|---|---|
| 1777907838 | 22.22° C | 53% | 1051.5 hPa | 0 mm | - | 685 W/m² | - |
| 1777907534 | 22.78° C | 58% | 1051.5 hPa | 0 mm | - | 664 W/m² | - |
| 1777907230 | 21.67° C | 58% | 1051.6 hPa | 0 mm | - | 648 W/m² | - |
| 1777906927 | 21.11° C | 59% | 1051.7 hPa | 0 mm | - | 638 W/m² | - |
| 1777906625 | 21.11° C | 57% | 1051.8 hPa | 0 mm | - | 563 W/m² | - |
| 1777906320 | 21.11° C | 58% | 1051.5 hPa | 0 mm | - | 615 W/m² | - |
| 1777906017 | 21.11° C | 59% | 1051.8 hPa | 0 mm | - | 595 W/m² | - |
| 1777905714 | 21.11° C | 59% | 1051.8 hPa | 0 mm | - | 580 W/m² | - |
| 1777905410 | 20.56° C | 58% | 1051.9 hPa | 0 mm | - | 566 W/m² | - |
| 1777905109 | 20.56° C | 62% | 1051.8 hPa | 0 mm | - | 551 W/m² | - |
| 1777904805 | 20° C | 62% | 1051.7 hPa | 0 mm | - | 536 W/m² | - |
| 1777904502 | 20° C | 61% | 1051.9 hPa | 0 mm | - | 516 W/m² | - |
| 1777904198 | 20° C | 59% | 1051.7 hPa | 0 mm | - | 507 W/m² | - |
| 1777903896 | 20° C | 63% | 1051.7 hPa | 0 mm | - | 412 W/m² | - |
| 1777903593 | 19.44° C | 62% | 1051.5 hPa | 0 mm | - | 466 W/m² | - |
| 1777903288 | 18.89° C | 64% | 1051.8 hPa | 0 mm | - | 464 W/m² | - |
| 1777902986 | 18.89° C | 65% | 1052 hPa | 0 mm | - | 447 W/m² | - |
| 1777902682 | 18.89° C | 65% | 1051.9 hPa | 0 mm | - | 428 W/m² | - |
| 1777902380 | 18.89° C | 70% | 1051.8 hPa | 0 mm | - | 410 W/m² | - |
| 1777902076 | 18.33° C | 70% | 1052 hPa | 0 mm | - | 400 W/m² | - |
| 1777901775 | 17.22° C | 71% | 1051.8 hPa | 0 mm | - | 386 W/m² | - |
| 1777901471 | 17.78° C | 71% | 1051.9 hPa | 0 mm | - | 288 W/m² | - |
| 1777901169 | 17.22° C | 72% | 1052.1 hPa | 0 mm | - | 305 W/m² | - |
| 1777900867 | 16.67° C | 73% | 1051.9 hPa | 0 mm | - | 260 W/m² | - |
| 1777900564 | 16.67° C | 75% | 1052.2 hPa | 0 mm | - | 312 W/m² | - |
* Rain latest hour (hover to see other rain measurements)
** Current wind speed in m/s (hover to see current wind gust speed)